Find York T1DES

NORAD ID: 64542 Int'l Des: 2025-135 Owner: SDA/YORKSS Country: US operational
LEOCIRCULARRETROGRADESSO

当前视图

正在加载3D地球...

关于 York T1DES

正在加载描述...

即将过境

Passes for default location (London). Set your location on the main map for personalized predictions.

高度历史

Loading altitude history...

两行轨道根数

1 64542U 25135Q 26150.86740781 .00013262 00000-0 52509-3 0 9990
2 64542 97.4691 267.0595 0002086 206.8006 153.3125 15.25555956 52286
Epoch: May 30, 2026 • Age: 10 hours

当前状态

高度 491.8 km
速度 7.62 km/s
星下点 -6.05°S, 91.76°E
发射日期 Jun 23, 2025
运行时间 0.9 years
类型 other

技术详情

分类 Payload
质量 100.00 kg
干质量 100.00 kg
总质量 100.00 kg
长度 0.50 m
直径 0.50 m
跨度 0.50 m
形状 Box+2 pan
制造商 YORKSS
平台类型 York
阶段状态 In Orbit
所有者/国家 SDA/YORKSS/US

Most Searched